Location: Newark
(45.2500°N, 7.5833°E)
Time: 21:44:34
(UTC+00:00)

Tiros 1 despin weight - Pass Details

Date: 04 February 2020
Orbit: 594 x 642 km, 48.2° (Epoch: 20 February)

Event Time Altitude Azimuth Distance (km) Brightness Sun altitude
Rises 12:23:13 0° 290° (WNW) 2,873 ? 27.8°
Reaches altitude 10° 12:25:33 10° 285° (WNW) 1,974 ? 27.7°
Maximum altitude 12:29:56 49° 211° (SSW) 801 ? 27.6°
Drops below altitude 10° 12:34:21 10° 136° (SE) 1,996 ? 27.4°
Sets 12:36:44 0° 131° (SE) 2,908 ? 27.3°
